Flag for Mexico Weather past 2 weeks in Playa del Carmen, Quintana Roo, Mexico

Now
75 °F

Clear.


Feels Like: 74 °F
Forecast: 79 / 91 °F
Wind: No wind

Location: Cozumel Civ / Mil

Current Time: Jul 1, 2015 at 1:37:53 AM

Latest Report: Jul 1, 2015 at 12:42 AM


Visibility: 7 mi

Pressure: 30.05 "Hg

Humidity: 94%

Dew point: 73 °F

Location of Playa del CarmenLocation

Historic Weather in Playa del Carmen — Graph

°F

Playa del Carmen temperature yesterday

Maximum temperature yesterday: 84 °F (at 10:49 AM)
Minimum temperature yesterday: 75 °F (at 4:52 AM)
Average temperature yesterday: 80 °F

Past Weeks' High & Low Weather Summary

 TemperatureHumidityPressure
High86 °F (Jun 27, 1:41 PM)100% (Jun 15, 11:44 PM)30.12 "Hg (Jun 15, 11:44 PM)
Low70 °F (Jun 24, 1:50 AM)62% (Jun 28, 3:42 PM)29.94 "Hg (Jun 17, 6:44 PM)
Average78 °F91%30.04 "Hg
* Reported Jun 15 11:44 PM — Jun 30 11:40 PM, Playa del Carmen, Weather by CustomWeather, © 2015

Note: Actual official high and low records may vary slightly from our data, if they occured in-between our weather recording intervals... More about our weather records

Advertising

Playa del Carmen weather history for previous 24 hours

 ConditionsComfort  
Time TempWeatherWind HumidityBarometerVisibility
11:40 PM
Tue, Jun 30
75 °FPassing clouds.No wind100%30.08 "Hg7 mi
10:43 PM75 °FPassing clouds.No wind100%30.08 "Hg7 mi
9:47 PM75 °FPassing clouds.No wind100%30.09 "Hg7 mi
8:49 PM77 °FPassing clouds.No wind100%30.05 "Hg7 mi
7:50 PM79 °FScattered clouds.No wind94%30.03 "Hg7 mi
6:46 PM81 °FScattered clouds.9 mph89%30.01 "Hg8 mi
5:47 PM82 °FScattered clouds.12 mph84%30.02 "Hg8 mi
3:46 PM84 °FBroken clouds.6 mph74%30.07 "Hg8 mi
2:44 PM84 °FBroken clouds.6 mph79%30.05 "Hg8 mi
1:50 PM84 °FPartly sunny.15 mph74%30.06 "Hg8 mi
12:46 PM84 °FBroken clouds.13 mph79%30.09 "Hg8 mi
11:42 AM84 °FBroken clouds.15 mph79%30.07 "Hg8 mi
10:49 AM84 °FPartly sunny.12 mph79%30.07 "Hg8 mi
9:45 AM82 °FPartly sunny.15 mph84%30.10 "Hg7 mi
8:47 AM81 °FPartly sunny.12 mph89%30.08 "Hg7 mi
7:43 AM77 °FScattered clouds.No wind100%30.07 "Hg7 mi
4:52 AM75 °FPartly cloudy.No wind94%30.03 "Hg7 mi
Weather by CustomWeather, © 2015

See weather overviewHow to use our weather pages